QPF
0.02 0.02 0.02 0.02 0.02 0.02 0.02 0.01 0.01 0.01 0.01 0.00 0.00 0.00 0.00 0.00 0.00 0.00 0.00 0.00 0.00 0.00 0.00 0.00 0.00 0.00 0.00 0.00 0.00 0.00 0.00 0.00 0.00 0.00 0.00 0.00 0.00 0.00 0.00 0.00 0.00 0.00 0.00
0.01 0.01 0.01 0.01 0.01 0.01 0.01 0.01 0.01 0.00 0.00 0.00 0.00 0.00 0.00 0.00 0.00 0.00 0.00 0.00 0.00 0.00 0.00 0.00 0.00 0.00 0.00 0.00 0.00 0.00 0.00 0.00 0.00 0.00 0.00 0.00 0.00 0.00 0.00 0.00 0.00 0.00 0.00
0.01 0.01 0.01 0.01 0.01 0.01 0.01 0.00 0.00 0.00 0.00 0.00 0.00 0.00 0.00 0.00 0.00 0.00 0.00 0.00 0.00 0.00 0.00 0.00 0.00 0.00 0.00 0.00 0.00 0.00 0.00 0.00 0.00 0.00 0.00 0.00 0.00 0.00 0.00 0.00 0.00 0.00 0.00
0.01 0.00 0.00 0.00 0.00 0.00 0.00 0.00 0.00 0.00 0.00 0.00 0.00 0.00 0.00 0.00 0.00 0.00 0.00 0.00 0.00 0.00 0.00 0.00 0.00 0.00 0.00 0.00 0.00 0.00 0.00 0.00 0.00 0.00 0.00 0.00 0.00 0.00 0.00 0.00 0.00 0.00 0.00
0.00 0.00 0.00 0.00 0.00 0.00 0.00 0.00 0.00 0.00 0.00 0.00 0.00 0.00 0.00 0.00 0.00 0.00 0.00 0.00 0.00 0.00 0.00 0.00 0.00 0.01 0.01 0.00 0.00 0.00 0.00 0.00 0.00 0.00 0.00 0.00 0.00 0.00 0.00 0.01 0.00 0.00 0.00
0.00 0.00 0.00 0.00 0.00 0.00 0.00 0.00 0.00 0.00 0.00 0.00 0.00 0.00 0.00 0.00 0.00 0.00 0.00 0.00 0.00 0.00 0.00 0.00 0.00 0.01 0.01 0.00 0.00 0.00 0.00 0.00 0.00 0.01 0.01 0.01 0.00 0.01 0.01 0.01 0.01 0.01 0.00
0.00 0.00 0.00 0.00 0.00 0.00 0.00 0.00 0.00 0.00 0.00 0.00 0.00 0.00 0.00 0.00 0.00 0.00 0.00 0.00 0.00 0.00 0.00 0.00 0.00 0.01 0.00 0.00 0.00 0.00 0.00 0.00 0.01 0.02 0.01 0.01 0.01 0.01 0.01 0.01 0.00 0.01 0.01
0.00 0.00 0.00 0.00 0.00 0.00 0.00 0.00 0.00 0.00 0.00 0.00 0.00 0.00 0.00 0.00 0.00 0.00 0.00 0.00 0.00 0.00 0.00 0.00 0.00 0.00 0.00 0.00 0.00 0.00 0.00 0.00 0.00 0.01 0.01 0.01 0.01 0.01 0.01 0.01 0.01 0.01 0.00
0.00 0.00 0.00 0.00 0.00 0.00 0.00 0.00 0.00 0.00 0.00 0.00 0.00 0.00 0.00 0.00 0.00 0.00 0.00 0.00 0.00 0.00 0.00 0.00 0.00 0.00 0.00 0.00 0.00 0.00 0.00 0.00 0.00 0.00 0.00 0.00 0.00 0.00 0.01 0.01 0.01 0.02 0.02
0.00 0.00 0.00 0.00 0.00 0.00 0.00 0.00 0.00 0.00 0.00 0.00 0.00 0.00 0.00 0.00 0.00 0.00 0.00 0.00 0.00 0.00 0.00 0.00 0.00 0.00 0.00 0.00 0.00 0.00 0.00 0.00 0.00 0.00 0.00 0.00 0.00 0.01 0.01 0.01 0.01 0.02 0.02
0.00 0.00 0.00 0.00 0.00 0.00 0.00 0.00 0.00 0.01 0.01 0.00 0.00 0.00 0.00 0.00 0.00 0.00 0.00 0.00 0.00 0.00 0.00 0.00 0.00 0.00 0.00 0.00 0.00 0.00 0.00 0.00 0.00 0.00 0.01 0.01 0.01 0.01 0.01 0.01 0.01 0.02 0.02
0.00 0.00 0.00 0.00 0.00 0.00 0.00 0.01 0.01 0.00 0.00 0.01 0.00 0.00 0.00 0.00 0.00 0.00 0.00 0.00 0.00 0.00 0.00 0.00 0.00 0.00 0.00 0.00 0.01 0.01 0.00 0.01 0.01 0.01 0.01 0.01 0.01 0.01 0.01 0.00 0.00 0.01 0.01
0.00 0.00 0.00 0.00 0.01 0.00 0.00 0.01 0.01 0.00 0.00 0.00 0.00 0.00 0.00 0.00 0.00 0.00 0.00 0.00 0.00 0.00 0.00 0.00 0.00 0.00 0.00 0.01 0.01 0.01 0.01 0.01 0.01 0.02 0.01 0.01 0.01 0.01 0.01 0.00 0.00 0.00 0.00
0.01 0.00 0.00 0.00 0.01 0.01 0.01 0.00 0.00 0.00 0.00 0.00 0.00 0.00 0.00 0.00 0.00 0.00 0.00 0.00 0.00 0.00 0.00 0.00 0.01 0.01 0.01 0.02 0.02 0.01 0.01 0.01 0.02 0.02 0.01 0.01 0.01 0.00 0.00 0.00 0.00 0.00 0.00
0.00 0.00 0.00 0.01 0.01 0.01 0.01 0.01 0.00 0.00 0.00 0.00 0.00 0.00 0.00 0.00 0.00 0.00 0.00 0.00 0.00 0.00 0.01 0.01 0.01 0.02 0.02 0.02 0.02 0.02 0.01 0.01 0.01 0.01 0.01 0.00 0.00 0.00 0.00 0.00 0.00 0.00 0.00
0.00 0.00 0.00 0.01 0.01 0.02 0.02 0.01 0.01 0.00 0.00 0.00 0.00 0.00 0.00 0.00 0.00 0.00 0.00 0.00 0.01 0.01 0.02 0.02 0.02 0.03 0.03 0.03 0.03 0.02 0.02 0.02 0.01 0.01 0.01 0.00 0.00 0.00 0.00 0.00 0.00 0.00 0.00
0.00 0.00 0.00 0.00 0.01 0.02 0.02 0.01 0.01 0.00 0.00 0.00 0.00 0.00 0.00 0.00 0.00 0.00 0.01 0.01 0.01 0.01 0.02 0.03 0.03 0.04 0.04 0.04 0.03 0.03 0.03 0.02 0.02 0.01 0.00 0.00 0.00 0.00 0.00 0.00 0.00 0.00 0.00
0.00 0.00 0.00 0.00 0.00 0.01 0.01 0.01 0.01 0.01 0.00 0.00 0.00 0.00 0.00 0.01 0.01 0.01 0.01 0.01 0.01 0.01 0.02 0.03 0.03 0.04 0.04 0.03 0.03 0.02 0.02 0.02 0.01 0.01 0.01 0.00 0.00 0.00 0.00 0.00 0.00 0.00 0.00
0.00 0.00 0.00 0.00 0.00 0.00 0.00 0.01 0.01 0.00 0.00 0.00 0.00 0.00 0.01 0.01 0.01 0.01 0.01 0.01 0.01 0.01 0.01 0.02 0.02 0.03 0.03 0.02 0.02 0.01 0.01 0.01 0.01 0.01 0.01 0.00 0.00 0.00 0.00 0.00 0.00 0.00 0.00
0.00 0.00 0.00 0.00 0.00 0.00 0.00 0.00 0.00 0.00 0.00 0.00 0.00 0.00 0.01 0.01 0.01 0.01 0.00 0.00 0.00 0.01 0.01 0.01 0.02 0.02 0.02 0.02 0.01 0.01 0.01 0.00 0.01 0.01 0.01 0.01 0.00 0.00 0.00 0.00 0.00 0.00 0.00
0.00 0.00 0.00 0.00 0.00 0.00 0.00 0.00 0.00 0.00 0.00 0.00 0.00 0.00 0.00 0.01 0.01 0.00 0.00 0.00 0.00 0.01 0.01 0.02 0.02 0.01 0.01 0.01 0.00 0.00 0.00 0.00 0.00 0.01 0.01 0.01 0.01 0.01 0.00 0.01 0.00 0.00 0.00
0.00 0.00 0.00 0.00 0.00 0.00 0.00 0.00 0.00 0.00 0.00 0.00 0.00 0.00 0.00 0.00 0.00 0.00 0.00 0.00 0.01 0.01 0.01 0.01 0.01 0.01 0.01 0.00 0.00 0.00 0.00 0.00 0.00 0.00 0.01 0.01 0.02 0.01 0.01 0.01 0.01 0.01 0.00
0.00 0.00 0.00 0.00 0.00 0.00 0.00 0.00 0.00 0.00 0.00 0.00 0.00 0.00 0.00 0.00 0.00 0.00 0.00 0.00 0.00 0.01 0.01 0.01 0.01 0.00 0.00 0.00 0.00 0.00 0.00 0.00 0.00 0.01 0.01 0.01 0.02 0.02 0.02 0.01 0.01 0.01 0.00
0.00 0.00 0.00 0.00 0.00 0.00 0.00 0.00 0.00 0.00 0.00 0.00 0.00 0.00 0.00 0.00 0.00 0.00 0.00 0.00 0.00 0.01 0.00 0.00 0.00 0.00 0.00 0.00 0.00 0.00 0.00 0.00 0.00 0.01 0.01 0.01 0.01 0.01 0.01 0.01 0.01 0.01 0.01
0.00 0.00 0.00 0.00 0.00 0.00 0.00 0.00 0.00 0.00 0.00 0.00 0.00 0.00 0.00 0.00 0.00 0.00 0.00 0.00 0.00 0.01 0.00 0.00 0.00 0.00 0.00 0.00 0.00 0.00 0.00 0.00 0.00 0.01 0.01 0.01 0.00 0.00 0.01 0.01 0.01 0.01 0.01
0.00 0.00 0.00 0.00 0.00 0.00 0.00 0.00 0.00 0.00 0.00 0.00 0.00 0.00 0.00 0.00 0.00 0.00 0.00 0.00 0.00 0.00 0.00 0.00 0.00 0.00 0.00 0.00 0.00 0.00 0.00 0.00 0.00 0.00 0.00 0.00 0.00 0.00 0.00 0.00 0.00 0.00 0.00
MSLP
1020.77 1021.04 1021.26 1021.44 1021.58 1021.70 1021.83 1021.98 1022.16 1022.38 1022.63 1022.90 1023.16 1023.41 1023.61 1023.77 1023.86 1023.89 1023.87 1023.80 1023.71 1023.59 1023.47 1023.35 1023.23 1023.13 1023.05 1022.97 1022.89 1022.81 1022.71 1022.58 1022.41 1022.19 1021.90 1021.56 1021.16 1020.73 1020.27 1019.81 1019.36 1018.95 1018.57
1021.73 1021.98 1022.16 1022.30 1022.40 1022.49 1022.59 1022.71 1022.87 1023.07 1023.30 1023.55 1023.79 1024.02 1024.20 1024.33 1024.39 1024.39 1024.33 1024.22 1024.05 1023.86 1023.66 1023.45 1023.25 1023.07 1022.91 1022.78 1022.68 1022.59 1022.50 1022.39 1022.25 1022.06 1021.80 1021.47 1021.08 1020.62 1020.14 1019.63 1019.13 1018.66 1018.23
1022.58 1022.82 1023.00 1023.12 1023.20 1023.27 1023.34 1023.44 1023.57 1023.74 1023.94 1024.15 1024.37 1024.56 1024.71 1024.81 1024.84 1024.82 1024.72 1024.57 1024.36 1024.12 1023.85 1023.57 1023.29 1023.04 1022.81 1022.62 1022.47 1022.36 1022.26 1022.16 1022.03 1021.86 1021.61 1021.29 1020.89 1020.42 1019.91 1019.37 1018.83 1018.32 1017.84
1023.34 1023.58 1023.75 1023.87 1023.94 1024.00 1024.05 1024.13 1024.23 1024.36 1024.51 1024.68 1024.84 1024.99 1025.10 1025.17 1025.18 1025.13 1025.02 1024.85 1024.62 1024.34 1024.03 1023.70 1023.37 1023.04 1022.75 1022.51 1022.30 1022.15 1022.02 1021.90 1021.76 1021.59 1021.34 1021.02 1020.61 1020.13 1019.59 1019.03 1018.47 1017.92 1017.42
1024.00 1024.24 1024.41 1024.53 1024.60 1024.64 1024.68 1024.73 1024.79 1024.88 1024.98 1025.09 1025.20 1025.29 1025.36 1025.39 1025.38 1025.32 1025.20 1025.03 1024.80 1024.51 1024.18 1023.82 1023.44 1023.07 1022.72 1022.41 1022.15 1021.94 1021.76 1021.60 1021.44 1021.24 1020.98 1020.65 1020.23 1019.74 1019.19 1018.62 1018.04 1017.48 1016.96
1024.57 1024.80 1024.97 1025.08 1025.14 1025.17 1025.19 1025.21 1025.23 1025.27 1025.32 1025.36 1025.41 1025.45 1025.47 1025.47 1025.44 1025.37 1025.26 1025.10 1024.88 1024.60 1024.27 1023.89 1023.48 1023.07 1022.66 1022.29 1021.97 1021.69 1021.46 1021.25 1021.04 1020.81 1020.53 1020.18 1019.75 1019.26 1018.71 1018.14 1017.56 1017.00 1016.48
1025.04 1025.25 1025.40 1025.50 1025.55 1025.56 1025.56 1025.55 1025.54 1025.53 1025.52 1025.52 1025.51 1025.49 1025.47 1025.44 1025.40 1025.32 1025.22 1025.07 1024.86 1024.60 1024.27 1023.88 1023.45 1023.00 1022.54 1022.11 1021.72 1021.37 1021.07 1020.80 1020.54 1020.28 1019.97 1019.61 1019.19 1018.71 1018.18 1017.62 1017.06 1016.51 1016.00
1025.40 1025.58 1025.71 1025.78 1025.81 1025.81 1025.79 1025.76 1025.72 1025.67 1025.62 1025.58 1025.52 1025.47 1025.42 1025.36 1025.29 1025.22 1025.11 1024.97 1024.77 1024.51 1024.18 1023.78 1023.32 1022.83 1022.32 1021.83 1021.37 1020.95 1020.59 1020.26 1019.96 1019.67 1019.35 1019.00 1018.59 1018.14 1017.63 1017.11 1016.57 1016.05 1015.55
1025.67 1025.82 1025.91 1025.95 1025.96 1025.94 1025.91 1025.86 1025.80 1025.74 1025.67 1025.60 1025.52 1025.44 1025.36 1025.28 1025.20 1025.10 1024.99 1024.84 1024.63 1024.36 1024.01 1023.59 1023.10 1022.57 1022.02 1021.47 1020.94 1020.47 1020.05 1019.68 1019.35 1019.04 1018.72 1018.39 1018.02 1017.60 1017.14 1016.66 1016.16 1015.66 1015.17
1025.87 1025.96 1026.02 1026.03 1026.02 1025.99 1025.95 1025.90 1025.85 1025.79 1025.72 1025.64 1025.56 1025.46 1025.36 1025.26 1025.15 1025.04 1024.90 1024.72 1024.49 1024.18 1023.81 1023.35 1022.83 1022.25 1021.65 1021.05 1020.48 1019.96 1019.50 1019.10 1018.76 1018.45 1018.16 1017.85 1017.53 1017.16 1016.76 1016.32 1015.86 1015.38 1014.90
1026.00 1026.05 1026.06 1026.05 1026.02 1025.99 1025.96 1025.93 1025.89 1025.86 1025.81 1025.74 1025.66 1025.56 1025.45 1025.33 1025.19 1025.04 1024.86 1024.64 1024.36 1024.01 1023.59 1023.09 1022.53 1021.91 1021.27 1020.64 1020.03 1019.49 1019.01 1018.61 1018.27 1017.98 1017.71 1017.45 1017.18 1016.86 1016.51 1016.12 1015.69 1015.24 1014.76
1026.07 1026.08 1026.06 1026.03 1026.00 1025.97 1025.96 1025.95 1025.96 1025.95 1025.94 1025.90 1025.83 1025.74 1025.62 1025.47 1025.30 1025.10 1024.87 1024.59 1024.25 1023.85 1023.38 1022.84 1022.23 1021.59 1020.92 1020.27 1019.66 1019.11 1018.63 1018.24 1017.92 1017.65 1017.43 1017.21 1016.98 1016.72 1016.41 1016.06 1015.66 1015.22 1014.74
1026.09 1026.07 1026.03 1025.98 1025.95 1025.95 1025.96 1025.99 1026.04 1026.07 1026.10 1026.09 1026.04 1025.95 1025.82 1025.65 1025.44 1025.19 1024.90 1024.55 1024.16 1023.70 1023.18 1022.59 1021.96 1021.30 1020.63 1019.98 1019.38 1018.84 1018.39 1018.02 1017.72 1017.49 1017.29 1017.11 1016.92 1016.70 1016.42 1016.10 1015.72 1015.29 1014.81
1026.05 1026.00 1025.95 1025.91 1025.90 1025.91 1025.96 1026.03 1026.12 1026.19 1026.25 1026.27 1026.24 1026.15 1026.01 1025.81 1025.56 1025.25 1024.90 1024.50 1024.04 1023.53 1022.97 1022.36 1021.72 1021.06 1020.41 1019.78 1019.20 1018.70 1018.27 1017.93 1017.66 1017.45 1017.28 1017.12 1016.95 1016.74 1016.49 1016.18 1015.81 1015.39 1014.92
1025.94 1025.89 1025.84 1025.81 1025.81 1025.86 1025.94 1026.04 1026.16 1026.28 1026.36 1026.40 1026.38 1026.28 1026.12 1025.89 1025.60 1025.25 1024.84 1024.39 1023.88 1023.34 1022.75 1022.14 1021.51 1020.87 1020.25 1019.66 1019.12 1018.65 1018.26 1017.94 1017.69 1017.49 1017.32 1017.16 1016.99 1016.78 1016.53 1016.23 1015.87 1015.46 1015.00
1025.76 1025.71 1025.67 1025.66 1025.69 1025.77 1025.88 1026.02 1026.16 1026.29 1026.39 1026.44 1026.42 1026.31 1026.13 1025.87 1025.55 1025.15 1024.71 1024.22 1023.69 1023.13 1022.54 1021.94 1021.33 1020.73 1020.15 1019.61 1019.12 1018.69 1018.33 1018.02 1017.77 1017.56 1017.38 1017.20 1017.00 1016.78 1016.51 1016.20 1015.85 1015.46 1015.03
1025.53 1025.49 1025.47 1025.49 1025.55 1025.65 1025.78 1025.94 1026.10 1026.24 1026.35 1026.39 1026.36 1026.25 1026.05 1025.77 1025.42 1025.00 1024.54 1024.03 1023.50 1022.94 1022.37 1021.80 1021.23 1020.67 1020.14 1019.65 1019.20 1018.80 1018.44 1018.14 1017.87 1017.64 1017.41 1017.19 1016.96 1016.70 1016.41 1016.09 1015.75 1015.38 1014.99
1025.27 1025.26 1025.26 1025.31 1025.39 1025.51 1025.66 1025.83 1026.00 1026.14 1026.24 1026.28 1026.24 1026.12 1025.91 1025.63 1025.27 1024.85 1024.38 1023.88 1023.36 1022.82 1022.28 1021.75 1021.22 1020.72 1020.23 1019.78 1019.35 1018.97 1018.61 1018.29 1017.98 1017.70 1017.42 1017.15 1016.86 1016.56 1016.25 1015.92 1015.59 1015.24 1014.90
1025.03 1025.04 1025.07 1025.14 1025.24 1025.38 1025.54 1025.72 1025.89 1026.03 1026.12 1026.16 1026.11 1025.99 1025.79 1025.51 1025.16 1024.75 1024.31 1023.83 1023.34 1022.83 1022.33 1021.84 1021.36 1020.89 1020.44 1020.01 1019.60 1019.20 1018.83 1018.47 1018.11 1017.77 1017.43 1017.09 1016.74 1016.40 1016.06 1015.73 1015.41 1015.10 1014.80
1024.84 1024.87 1024.92 1025.01 1025.14 1025.29 1025.45 1025.63 1025.79 1025.93 1026.02 1026.06 1026.02 1025.91 1025.72 1025.46 1025.14 1024.77 1024.36 1023.92 1023.47 1023.01 1022.55 1022.09 1021.64 1021.20 1020.77 1020.34 1019.92 1019.51 1019.10 1018.68 1018.27 1017.86 1017.45 1017.05 1016.65 1016.27 1015.91 1015.57 1015.27 1014.99 1014.74
1024.73 1024.77 1024.84 1024.95 1025.08 1025.24 1025.42 1025.59 1025.75 1025.89 1025.98 1026.02 1025.99 1025.90 1025.74 1025.52 1025.24 1024.91 1024.55 1024.16 1023.75 1023.34 1022.91 1022.49 1022.06 1021.63 1021.20 1020.76 1020.32 1019.87 1019.41 1018.94 1018.47 1017.99 1017.52 1017.06 1016.62 1016.21 1015.83 1015.50 1015.21 1014.96 1014.76
1024.70 1024.75 1024.84 1024.95 1025.10 1025.26 1025.43 1025.61 1025.77 1025.90 1026.00 1026.05 1026.05 1025.98 1025.86 1025.68 1025.45 1025.18 1024.87 1024.53 1024.16 1023.78 1023.39 1022.98 1022.57 1022.14 1021.69 1021.23 1020.75 1020.25 1019.74 1019.22 1018.68 1018.15 1017.63 1017.13 1016.66 1016.23 1015.85 1015.53 1015.26 1015.05 1014.88
1024.73 1024.80 1024.89 1025.02 1025.17 1025.33 1025.51 1025.68 1025.84 1025.98 1026.08 1026.15 1026.16 1026.13 1026.05 1025.92 1025.74 1025.52 1025.25 1024.96 1024.63 1024.28 1023.91 1023.51 1023.09 1022.65 1022.18 1021.68 1021.17 1020.62 1020.07 1019.49 1018.91 1018.34 1017.79 1017.26 1016.78 1016.35 1015.98 1015.67 1015.42 1015.24 1015.10
1024.81 1024.89 1024.99 1025.12 1025.27 1025.44 1025.62 1025.79 1025.94 1026.09 1026.20 1026.28 1026.32 1026.32 1026.27 1026.18 1026.04 1025.86 1025.65 1025.39 1025.09 1024.76 1024.40 1024.00 1023.57 1023.11 1022.62 1022.09 1021.54 1020.96 1020.36 1019.76 1019.15 1018.55 1017.98 1017.45 1016.97 1016.55 1016.20 1015.91 1015.69 1015.54 1015.42
1024.91 1024.99 1025.11 1025.25 1025.41 1025.58 1025.75 1025.92 1026.08 1026.22 1026.34 1026.43 1026.48 1026.50 1026.48 1026.43 1026.32 1026.18 1025.99 1025.77 1025.49 1025.18 1024.82 1024.42 1023.98 1023.50 1022.99 1022.44 1021.86 1021.26 1020.64 1020.02 1019.40 1018.80 1018.23 1017.71 1017.24 1016.84 1016.51 1016.25 1016.06 1015.93 1015.84
1025.00 1025.11 1025.24 1025.39 1025.56 1025.73 1025.90 1026.07 1026.22 1026.36 1026.48 1026.58 1026.64 1026.68 1026.68 1026.64 1026.57 1026.45 1026.29 1026.08 1025.82 1025.52 1025.17 1024.77 1024.33 1023.84 1023.31 1022.75 1022.16 1021.55 1020.93 1020.30 1019.69 1019.10 1018.55 1018.04 1017.60 1017.22 1016.92 1016.68 1016.51 1016.40 1016.34
Thickness
5632 5629 5625 5621 5617 5613 5609 5604 5599 5594 5590 5585 5580 5575 5570 5565 5561 5557 5552 5548 5545 5541 5537 5534 5529 5526 5521 5517 5513 5508 5503 5499 5495 5493 5490 5489 5487 5485 5483 5481 5479 5477 5474
5615 5613 5609 5604 5600 5596 5591 5586 5582 5578 5573 5568 5563 5557 5551 5545 5541 5537 5533 5529 5525 5521 5517 5514 5511 5509 5504 5500 5496 5492 5488 5484 5480 5478 5476 5474 5473 5471 5470 5468 5466 5463 5461
5599 5595 5591 5586 5582 5578 5573 5569 5565 5561 5556 5551 5545 5538 5532 5526 5522 5518 5513 5509 5505 5502 5499 5496 5493 5491 5487 5484 5480 5477 5473 5471 5467 5464 5462 5461 5460 5459 5458 5456 5454 5451 5450
5583 5579 5574 5569 5564 5560 5556 5552 5548 5543 5537 5532 5526 5519 5513 5508 5503 5499 5495 5491 5487 5484 5482 5479 5477 5475 5472 5470 5467 5463 5460 5457 5454 5451 5450 5449 5448 5448 5445 5444 5443 5442 5440
5566 5561 5556 5552 5547 5543 5539 5534 5530 5525 5519 5514 5507 5501 5496 5490 5485 5480 5476 5473 5469 5467 5465 5464 5463 5462 5460 5457 5454 5450 5448 5445 5442 5440 5440 5440 5439 5437 5436 5435 5434 5434 5434
5551 5545 5541 5536 5531 5526 5522 5517 5512 5507 5501 5496 5489 5483 5478 5473 5468 5464 5460 5455 5453 5451 5449 5449 5448 5448 5446 5443 5441 5440 5439 5436 5434 5432 5432 5432 5432 5431 5431 5429 5428 5428 5429
5536 5531 5526 5521 5516 5511 5506 5501 5495 5489 5484 5478 5472 5466 5460 5455 5451 5447 5444 5441 5438 5436 5434 5434 5434 5435 5432 5430 5428 5428 5428 5429 5429 5427 5427 5427 5428 5428 5427 5427 5425 5423 5422
5520 5516 5511 5506 5501 5496 5491 5485 5479 5473 5468 5462 5456 5450 5444 5439 5435 5431 5429 5426 5424 5423 5422 5422 5421 5421 5421 5419 5419 5420 5421 5423 5424 5425 5425 5426 5427 5427 5426 5425 5423 5422 5421
5507 5503 5498 5493 5487 5482 5476 5470 5465 5459 5453 5447 5442 5436 5430 5425 5421 5418 5415 5412 5410 5410 5411 5412 5412 5412 5413 5413 5413 5414 5417 5421 5424 5425 5426 5427 5427 5428 5427 5424 5422 5420 5419
5495 5491 5486 5481 5475 5469 5463 5457 5451 5445 5439 5433 5428 5422 5417 5412 5408 5405 5403 5400 5399 5400 5402 5404 5406 5407 5409 5410 5410 5412 5414 5419 5422 5424 5426 5428 5428 5428 5427 5424 5421 5418 5416
5484 5480 5475 5470 5464 5458 5451 5445 5438 5432 5425 5420 5415 5410 5405 5401 5397 5394 5393 5391 5391 5393 5395 5398 5402 5405 5408 5411 5413 5414 5417 5420 5421 5423 5424 5426 5426 5426 5425 5423 5421 5416 5414
5475 5470 5466 5460 5455 5449 5441 5434 5427 5420 5414 5408 5404 5399 5395 5391 5389 5387 5387 5388 5389 5390 5393 5396 5401 5405 5409 5413 5417 5419 5421 5423 5423 5424 5424 5424 5424 5423 5423 5422 5420 5418 5414
5466 5461 5457 5452 5446 5440 5433 5426 5418 5411 5405 5400 5395 5391 5388 5386 5384 5384 5385 5386 5388 5390 5394 5399 5403 5408 5412 5416 5419 5422 5424 5425 5425 5424 5424 5423 5423 5422 5422 5421 5419 5417 5415
5459 5454 5450 5444 5439 5433 5427 5420 5413 5406 5400 5395 5391 5387 5384 5383 5382 5383 5384 5387 5390 5393 5397 5402 5407 5411 5415 5418 5421 5424 5426 5426 5426 5425 5424 5423 5423 5422 5420 5418 5415 5413 5411
5453 5449 5444 5440 5434 5428 5422 5416 5410 5405 5400 5395 5390 5386 5384 5383 5383 5384 5384 5388 5391 5394 5398 5403 5408 5412 5416 5420 5423 5426 5428 5428 5428 5427 5425 5423 5422 5420 5419 5417 5414 5412 5409
5449 5445 5440 5436 5431 5426 5419 5412 5409 5405 5401 5397 5393 5390 5388 5386 5387 5388 5390 5393 5396 5399 5402 5405 5409 5413 5416 5420 5423 5426 5428 5429 5429 5428 5426 5424 5422 5420 5418 5416 5414 5411 5408
5446 5442 5439 5435 5430 5425 5419 5413 5407 5403 5400 5398 5395 5393 5391 5390 5391 5392 5394 5397 5400 5403 5405 5407 5411 5415 5419 5422 5425 5427 5428 5430 5430 5429 5428 5426 5424 5422 5419 5416 5413 5411 5408
5446 5443 5439 5435 5431 5426 5421 5415 5410 5405 5401 5399 5398 5396 5395 5395 5395 5396 5398 5401 5403 5406 5407 5410 5413 5417 5421 5424 5426 5428 5430 5431 5431 5430 5429 5428 5425 5423 5420 5417 5414 5411 5409
5446 5442 5439 5435 5431 5427 5422 5417 5412 5408 5403 5400 5399 5399 5398 5398 5399 5400 5402 5402 5404 5407 5410 5414 5417 5420 5422 5425 5427 5429 5430 5431 5431 5431 5430 5429 5428 5425 5422 5419 5416 5414 5411
5445 5443 5439 5435 5430 5426 5422 5417 5413 5409 5405 5402 5401 5400 5400 5401 5401 5402 5404 5405 5407 5410 5413 5416 5419 5422 5424 5426 5428 5430 5431 5431 5431 5432 5431 5431 5430 5428 5425 5422 5419 5416 5414
5444 5441 5439 5434 5430 5426 5422 5418 5414 5411 5408 5405 5403 5403 5404 5402 5403 5404 5406 5408 5410 5413 5415 5418 5420 5423 5425 5427 5429 5430 5431 5431 5431 5431 5432 5432 5432 5431 5428 5425 5423 5420 5418
5444 5440 5437 5433 5429 5426 5422 5419 5416 5413 5410 5408 5406 5406 5407 5406 5406 5408 5410 5412 5414 5416 5418 5419 5421 5423 5424 5426 5427 5429 5430 5431 5432 5432 5432 5433 5434 5433 5432 5429 5426 5424 5421
5445 5441 5437 5433 5429 5426 5422 5419 5416 5414 5412 5410 5409 5408 5408 5408 5409 5410 5412 5414 5417 5418 5420 5421 5422 5424 5425 5427 5428 5429 5429 5430 5432 5432 5433 5434 5435 5435 5433 5431 5429 5427 5425
5446 5442 5437 5432 5428 5424 5421 5419 5417 5415 5413 5411 5410 5410 5410 5410 5411 5413 5414 5416 5418 5419 5420 5421 5422 5423 5426 5428 5430 5431 5433 5434 5436 5437 5437 5437 5437 5437 5435 5433 5431 5430 5426
5446 5441 5436 5432 5428 5424 5421 5419 5417 5415 5414 5412 5411 5411 5411 5412 5413 5414 5416 5417 5417 5418 5419 5421 5422 5424 5426 5428 5430 5433 5436 5439 5440 5441 5441 5440 5439 5438 5437 5435 5433 5431 5428
5446 5441 5436 5431 5427 5424 5421 5419 5417 5415 5414 5413 5412 5412 5412 5412 5413 5414 5415 5416 5417 5417 5419 5420 5422 5423 5426 5429 5431 5434 5438 5441 5442 5443 5442 5441 5440 5438 5437 5434 5434 5431 5429